[Iaude] MPEC U70: 2023 SM36 [a=2.21,e=0.47,i=22.9,H=20.3]

mpec at marsden.cfa.harvard.edu mpec at marsden.cfa.harvard.edu
Wed Oct 18 09:46:44 EDT 2023


M.P.E.C. 2023-U70                              Issued 2023 October 18, 13:45 UT

     The Minor Planet Electronic Circulars contain information on unusual
         minor planets, routine data on comets and natural satellites,
         and occasional editorial announcements.  They are published
    on behalf of Division F of the International Astronomical Union by the
          Minor Planet Center, Smithsonian Astrophysical Observatory,
                          Cambridge, MA 02138, U.S.A.
			  
             Prepared using the Tamkin Foundation Computer Network

                              MPC at CFA.HARVARD.EDU
            URL https://www.minorplanetcenter.net/    ISSN 1523-6714

                                   2023 SM36                                    


Observations:
     K23S36M  C2023 09 13.48915101 11 18.519-28 16 45.30         22.08GVEU070F51
     K23S36M  C2023 09 13.49978601 11 17.786-28 16 48.95         21.60GVEU070F51
     K23S36M  C2023 09 13.51040301 11 16.969-28 16 51.88         21.83GVEU070F51
     K23S36M* C2023 09 18.48031701 04 48.735-28 37 07.64         22.26wXEU070F52
     K23S36M  C2023 09 18.49061101 04 47.817-28 37 09.53         22.23wXEU070F52
     K23S36M  C2023 09 18.50085801 04 46.865-28 37 11.52         21.86wXEU070F52
     K23S36M  C2023 10 06.37592300 31 21.338-28 01 08.66         21.42GVEU070F51
     K23S36M  C2023 10 06.38623700 31 19.917-28 01 03.28         20.74GVEU070F51
     K23S36M  C2023 10 06.40742100 31 17.068-28 00 52.99         21.54GVEU070F51
     K23S36M  C2023 10 14.32442300 13 48.358-26 26 27.47         21.76GVEU070F51
     K23S36M  C2023 10 14.33575400 13 46.789-26 26 16.59         21.05GVEU070F51
     K23S36M  C2023 10 14.35843100 13 43.663-26 25 55.88         21.43GVEU070F51
     K23S36M  C2023 10 18.32093900 05 09.947-25 17 40.36         21.33wXEU070F51
     K23S36M  C2023 10 18.33146400 05 08.544-25 17 28.49         21.69wXEU070F51
     K23S36M  C2023 10 18.34198000 05 07.161-25 17 16.74         21.79wXEU070F51
     K23S36M  C2023 10 18.35396100 05 05.575-25 17 03.07         21.58wXEU070F51

Observer details:
F51 Pan-STARRS 1, Haleakala.  Observers J. Bulger, T. Lowe, P. Minguez, A.
    Schultz, I. Smith.  Measurers K. Chambers, T. de Boer, J. Fairlamb, H.
    Gao, M. Huber, C.-C. Lin, E. Magnier, Y. Ramanjooloo, R. Wainscoat, R.
    Weryk.  1.8-m Ritchey-Chretien + CCD.
F52 Pan-STARRS 2, Haleakala.  Observers J. Bulger, T. Lowe, P. Minguez, A.
    Schultz, I. Smith.  Measurers K. Chambers, T. de Boer, J. Bulger, J.
    Fairlamb, H. Gao, M. Huber, C.-C. Lin, T. Lowe, E. Magnier, P. Minguez, Y.
    Ramanjooloo, A. Schultz, I. Smith, R. Wainscoat, R. Weryk.  1.8-m Ritchey-
    Chretien + CCD.

Orbital elements:
2023 SM36                                                Earth MOID = 0.2803 AU
Epoch 2023 Sept. 13.0 TT = JDT 2460200.5                Bell                    
M 319.18583              (2000.0)            P               Q                  
n   0.29979223     Peri.   51.39470     +0.08634628     -0.97003775             
a   2.2110020      Node    35.71563     +0.74953697     -0.08690987             
e   0.4703115      Incl.   22.89325     +0.65630683     +0.22687759             
P   3.29           H   20.32          G   0.15           U   6                  
Residuals in seconds of arc
230913 F51  0.3-  0.3+    231006 F51  0.1-  0.0     231018 F51  0.0   0.1+
230913 F51  0.4+  0.2-    231006 F51  0.3-  0.2+    231018 F51  0.1-  0.1+
230913 F51  0.0   0.0     231006 F51  0.2+  0.2-    231018 F51  0.0   0.1-
230918 F52  0.1-  0.2-    231014 F51  0.2+  0.3-    231018 F51  0.1+  0.0
230918 F52  0.2+  0.2-    231014 F51  0.0   0.2+
230918 F52  0.0   0.2-    231014 F51  0.1-  0.0

Ephemeris:
2023 SM36                a,e,i = 2.21, 0.47, 23                  q = 1.1711
Date    TT    R. A. (2000) Decl.     Delta      r    Elong.  Phase     V
2023 09 18    01 05 30.0 -28 35 25   0.8164  1.7456   146.6    18.5    22.0
...
2023 10 03    00 38 35.2 -28 24 51   0.7175  1.6532   147.9    18.8    21.7
...
2023 10 11    00 21 09.3 -27 12 42   0.6824  1.6043   144.6    21.1    21.6
...
2023 10 17    00 07 58.9 -25 41 49   0.6644  1.5679   140.6    23.8    21.5
2023 10 18    00 05 50.6 -25 23 34   0.6620  1.5619   139.8    24.3    21.5
2023 10 19    00 03 44.0 -25 04 28   0.6598  1.5559   139.0    24.8    21.5
...
2023 10 25    23 51 48.4 -22 52 23   0.6505  1.5201   134.0    28.1    21.5
...
2023 11 02    23 38 33.6 -19 15 38   0.6471  1.4734   126.7    32.7    21.6
...
2023 11 17    23 24 04.4 -11 03 39   0.6624  1.3902   113.2    40.8    21.7

M. P. C. Staff               (C) Copyright 2023 MPC           M.P.E.C. 2023-U70





More information about the Iaude mailing list